Location: Bougoudala
(13.2282°N, 4.9477°W)
Time: 02:10:42
(UTC+00:00)

Cosmos 1420 Rocket - Pass Details

Date: 29 January 2020
Orbit: 754 x 782 km, 74.0° (Epoch: 25 February)

Event Time Altitude Azimuth Distance (km) Brightness Sun altitude
Rises 18:40:15 0° 177° (S) 3,193 7.4 -5.7°
Reaches altitude 10° 18:42:44 10° 169° (S) 2,270 6.5 -6.3°
Maximum altitude 18:47:30 39° 101° (E) 1,110 4.5 -7.4°
Drops below altitude 10° 18:52:18 10° 33° (NNE) 2,281 6.0 -8.6°
Sets 18:54:48 0° 26° (NNE) 3,210 6.8 -9.1°
